Location: Giebu?tów
(50.4044°N, 20.1693°E)
Time: 01:08:23
(UTC+00:00)

Daily predictions for brighter satellites

Satellite Brightness Start Highest point End
(mag) Time Altitude Azimuth Time Altitude Azimuth Time Altitude Azimuth
ACS3 Solar Sail 4.5 00:18:48 10° ENE 00:19:36 11° ENE 00:19:36 11° ENE
USA 267 4.3 01:28:14 10° ENE 01:32:57 39° ESE 01:32:57 39° ESE
Cosmos 2278 Rocket 4.2 01:47:56 21° NNE 01:49:14 23° NE 01:53:38 10° E
H-2A R/B 4.3 01:46:21 10° NNE 01:47:35 17° NNE 01:47:35 17° NNE
Cosmos 2333 Rocket 3.6 01:57:29 32° NNE 01:57:29 32° NNE 02:00:29 10° NNE
COSMOS 2455 3.7 02:01:57 46° NE 02:01:57 46° NE 02:06:06 10° NE
ADEOS II 4.3 01:58:03 10° NNE 01:59:06 16° N 01:59:06 16° N
ACS3 Solar Sail 2.4 01:59:09 10° NNE 02:03:45 51° NE 02:03:45 51° NE
CENTAUR R/B 4.1 02:05:12 29° NNW 02:06:26 31° N 02:13:43 10° ENE
Resurs 1-4 Rocket 4.5 02:06:35 10° N 02:07:12 13° N 02:07:12 13° N
USA 234 3.4 02:06:03 10° ESE 02:11:31 65° SE 02:11:31 65° SE
Cosmos 2360 Rocket 3.1 02:17:23 43° NNE 02:17:23 43° NNE 02:21:09 10° NNE
Cosmos 2322 Rocket 3.2 02:17:43 40° NNE 02:17:43 40° NNE 02:21:19 10° NNE
SL-16 R/B 3.6 02:24:11 29° N 02:24:11 29° N 02:27:09 10° NNE
Cosmos 44 Rocket 4.2 02:26:24 48° ENE 02:26:24 48° ENE 02:30:40 10° ESE
Cosmos 1943 Rocket 3.5 02:24:45 26° N 02:26:59 35° NE 02:32:01 10° ESE
ARGOS 3.6 02:28:17 10° NNE 02:33:40 60° E 02:34:50 48° SSE
Okean 1-7 4.4 02:36:46 35° ENE 02:36:46 35° ENE 02:39:45 10° NNE
Cosmos 1140 Rocket 4.2 02:35:56 41° NNE 02:37:06 49° ENE 02:42:03 10° SE
ADEOS Rocket 3.1 02:32:20 10° NNE 02:38:45 73° WNW 02:38:45 73° WNW
CZ-2C R/B 2.9 02:36:17 10° NNE 02:41:14 59° ESE 02:42:20 47° SSE
NOSS 3-1 (C) 4.1 02:40:03 32° SSE 02:41:16 37° ESE 02:46:19 10° NE
Cosmos 2100 Rocket 4.3 02:40:29 10° N 02:46:36 63° ENE 02:52:41 10° SSE
SJ 16-02 4.2 02:52:06 10° NNE 02:54:05 13° NE 02:56:06 10° ENE
Cosmos 2219 Rocket 2.0 02:55:06 78° WNW 02:55:07 78° WNW 03:00:51 10° NNE
SL-24 R/B - RUBIN 2 3.8 02:58:33 80° SSW 02:58:49 86° SE 03:03:46 10° NE
Cosmos 1707 Rocket 4.4 03:05:39 41° N 03:05:39 41° N 03:08:34 10° N
USA 59 Rocket 1.1 03:05:02 31° E 03:05:02 31° E 03:07:01 10° ENE
COSMOS 2428 3.4 02:59:22 10° S 03:04:51 52° ESE 03:10:22 10° NE
Cosmos 1459 Rocket 4.1 03:01:40 10° N 03:08:05 80° E 03:14:26 10° SSE
Cosmos 2322 4.0 03:08:00 17° SSW 03:12:20 67° ESE 03:17:58 10° NNE
IRS P6 4.5 03:07:08 10° NNE 03:12:29 75° WNW 03:14:08 45° SW
SL-08 RB Rocket 3.6 03:09:41 10° NNE 03:14:17 89° WSW 03:15:42 44° SSW
CZ-2D R/B 4.3 03:13:52 10° NNW 03:14:23 12° NNW 03:14:23 12° NNW
Cosmos 1727 Rocket 3.8 03:11:08 10° SSW 03:17:20 78° WNW 03:23:36 10° N
USA 267 3.2 03:11:14 10° ENE 03:17:47 78° NNW 03:20:18 41° WSW
Cosmos 1725 Rocket 4.3 03:11:59 10° N 03:18:18 67° ENE 03:24:35 10° SSE
Cosmos 407 Rocket 4.0 03:14:38 15° NNW 03:18:53 57° ENE 03:23:54 10° SE
Cosmos 1023 Rocket 4.2 03:18:48 46° NW 03:20:18 75° WSW 03:25:20 10° SSE
COSMO-SKYMED 1 3.8 03:19:24 10° SE 03:23:14 39° ENE 03:27:05 10° N
Cosmos 2150 Rocket 4.2 03:23:19 48° WNW 03:23:19 48° WNW 03:28:23 10° NNE
SKYMED 2 4.2 03:19:25 10° SSE 03:23:38 55° ENE 03:27:54 10° N
Cosmos 2228 Rocket 3.0 03:26:01 63° WNW 03:26:01 63° WNW 03:30:16 10° N
Cosmos 1802 Rocket 4.1 03:19:40 10° N 03:26:07 82° E 03:32:25 10° SSE
Cosmos 1980 Rocket 4.3 03:27:56 11° NNW 03:28:23 11° NNW 03:29:59 10° N
H-2A R/B 3.6 03:26:13 10° N 03:28:05 19° NNW 03:28:05 19° NNW
Cosmos 1269 Rocket 4.0 03:29:01 38° NW 03:30:51 59° WSW 03:36:02 10° S
NOSS 2-1 (E) 3.4 03:32:54 42° S 03:33:44 57° SE 03:36:48 10° NE
Cosmos 2278 Rocket 2.1 03:29:49 18° NNW 03:34:06 88° ENE 03:39:46 10° SSE
USA 238 DEB 4.5 03:33:04 28° NW 03:35:08 33° NNW 03:41:32 10° NE
USA 238 4.5 03:33:10 28° NW 03:35:14 34° NNW 03:41:38 10° NE
Cosmos 2173 Rocket 3.9 03:31:18 10° NNW 03:37:20 63° W 03:43:18 10° S
Cosmos 2251 Rocket 4.4 03:32:10 10° NNW 03:37:22 49° ENE 03:42:34 10° SE
Cosmos 2333 Rocket 3.4 03:39:30 25° NW 03:39:44 25° NW 03:44:26 10° NNE
Cosmos 1703 Rocket 3.6 03:36:25 10° S 03:40:46 78° E 03:45:10 10° NNE
Cosmos 2237 Rocket 3.4 03:35:50 10° S 03:41:09 43° ESE 03:46:28 10° NE
ADEOS II 4.1 03:39:08 10° NNW 03:39:55 12° NNW 03:39:55 12° NNW
Cosmos 1328 3.4 03:38:36 10° S 03:42:14 86° W 03:45:54 10° N
Cosmos 1939 Rocket 2.7 03:42:37 10° N 03:46:27 60° WNW 03:48:48 21° SSW
COSMOS 2455 3.7 03:45:06 29° WNW 03:46:33 32° NW 03:51:56 10° NNE
Lacrosse 5 rocket 2.0 03:46:58 29° NNW 03:47:04 29° NNW 03:50:05 10° NE
Cosmos 2292 Rocket 4.2 03:42:54 10° S 03:47:06 65° E 03:52:35 10° NNE
ACS3 Solar Sail 2.6 03:42:48 10° N 03:47:43 27° WNW 03:47:53 27° WNW
Meteor 1-24 Rocket 3.7 03:44:53 10° SSW 03:50:41 85° WNW 03:56:17 10° NNE
Cosmos 2369 Rocket 4.0 03:46:42 10° NNW 03:51:27 27° NE 03:56:12 10° E
BlueWalker 3 2.8 03:53:51 29° SW 03:53:58 29° SW 03:57:09 10° SSE
USA 234 4.1 03:50:31 10° S 03:56:13 31° SW 03:58:53 24° W
CZ-4 R/B 3.9 03:51:56 10° NNE 03:56:54 84° ESE 04:01:43 10° SSW
Cosmos 2123 Rocket 3.9 03:52:40 10° SSW 03:58:52 72° W 04:05:05 10° N
CENTAUR R/B 4.0 03:52:19 13° NW 03:59:00 46° NNE 04:07:40 10° E
USA 276 4.0 04:00:15 15° SSW 04:00:15 15° SSW 04:01:22 10° S
Cosmos 2360 Rocket 3.4 03:59:09 22° NW 04:00:11 23° NW 04:04:42 10° NNE
Helios 1A Rocket 2.3 03:56:51 10° S 04:00:12 63° WSW 04:02:41 17° NNW
Cosmos 1782 Rocket 3.5 03:56:03 10° N 04:00:29 88° W 04:04:52 10° S
Cosmos 2322 Rocket 3.5 03:59:32 21° NW 04:00:30 22° NW 04:04:51 10° NNE
Meteor 2-5 Rocket 3.7 03:55:37 10° SSW 04:01:32 79° WNW 04:07:25 10° N
Gbstr 26 Del rocket 3.7 03:59:16 21° WSW 04:02:43 74° SSE 04:08:52 10° ENE
NOAA 12 4.1 03:58:53 10° NNE 04:04:15 85° ESE 04:09:35 10° SSW
SJ-11-01 4.2 03:59:51 10° N 04:04:30 64° WNW 04:09:08 10° SSW
Cosmos 44 Rocket 4.1 04:05:02 25° W 04:06:54 33° WSW 04:11:27 10° S
SL-16 R/B 3.9 04:06:02 15° NW 04:07:09 15° NNW 04:10:28 10° N
Cosmos 2016 Rocket 4.0 04:02:19 10° NNW 04:08:36 62° W 04:14:50 10° S
Cosmos 374 Rocket 4.3 04:05:55 12° SW 04:09:24 86° SE 04:13:47 10° NE
Cosmos 1943 Rocket 2.3 04:06:17 14° NW 04:10:55 50° WSW 04:16:11 10° S
H-2A R/B 4.3 04:08:05 10° N 04:11:16 25° WNW 04:11:16 25° WNW
Okean 1-7 4.1 04:13:10 23° WNW 04:13:10 23° WNW 04:16:23 10° NNW
ARGOS 4.1 04:09:05 10° N 04:13:32 27° WNW 04:16:17 18° W
Cosmos 1908 Rocket 4.2 04:12:10 10° NNW 04:16:10 34° W 04:20:09 10° SSW
NOSS 2-1 (C) 3.0 04:14:58 26° WSW 04:16:27 46° NW 04:19:22 10° NE
Meteor 2-21 Rocket 4.5 04:10:45 10° SSW 04:16:45 57° WNW 04:22:45 10° N
Cosmos 1140 Rocket 4.3 04:15:56 18° WNW 04:18:32 27° W 04:22:48 10° SSW
CZ-2C R/B 3.5 04:14:58 10° N 04:18:56 24° WNW 04:21:33 16° W
NOSS 2-1 (D) 3.2 04:19:05 24° W 04:20:32 40° NW 04:23:23 10° NNE
Cosmos 1300 Rocket 3.7 04:16:51 10° NNW 04:21:04 49° W 04:25:13 10° S
ADEOS Rocket 4.5 04:19:10 10° N 04:23:23 19° NW 04:25:40 16° WNW
Aureole 3 Rocket 3.7 04:20:29 10° N 04:24:36 69° E 04:30:16 10° SSE
Cosmos 1812 3.5 04:21:50 10° N 04:24:38 38° ENE 04:27:23 10° SSE
Cosmos 2061 Rocket 4.0 04:22:31 10° NNW 04:28:40 65° W 04:34:46 10° S
Iridium 4 Rocket 3.6 04:27:14 10° NNW 04:31:13 35° W 04:35:01 10° SSW
NOSS 3-1 (C) 3.4 04:27:25 13° WSW 04:31:45 49° NW 04:37:40 10° NE
SJ 16-02 1.5 04:28:43 10° NNW 04:33:02 75° ENE 04:37:19 10° SSE
Orbus 7S? 3.6 04:31:57 10° SW 04:37:17 70° SE 04:40:13 10° ENE
Cosmos 1190 Rocket 4.0 04:33:33 10° NNW 04:38:49 70° WSW 04:44:01 10° SSE
IRS-1D 3.8 04:34:32 10° N 04:39:14 42° WNW 04:43:50 10° SW
SL-16 R/B 4.0 04:34:14 10° S 04:39:24 37° ESE 04:44:35 10° NE
Cosmos 676 Rocket 4.2 04:34:30 10° NNW 04:39:48 79° ENE 04:45:01 10° SSE
Cosmos 2219 Rocket 3.5 04:36:50 14° WNW 04:40:01 21° NW 04:44:17 10° NNE
NOSS 0 Rocket 4.0 04:39:41 10° SW 04:45:42 56° NW 04:51:47 10° NNE
Cosmos 2056 Rocket 4.1 04:40:29 10° S 04:45:49 65° ESE 04:51:11 10° NNE
Cosmos 1869 3.0 04:44:05 10° NNW 04:47:32 58° W 04:50:58 10° S
COSMOS 2428 3.3 04:44:07 10° WSW 04:49:19 35° NW 04:54:33 10° NNE
Okean 2 Rocket 4.1 04:47:16 10° N 04:51:33 49° ENE 04:55:47 10° SSE
Cosmos 371 Rocket 3.3 04:46:53 10° NNW 04:51:46 83° WSW 04:56:36 10° SSE
USA 59 Rocket 0.5 04:50:47 12° W 04:52:59 21° NNW 04:55:21 10° NNE
Cosmos 1954 Rocket 4.1 04:51:47 10° NNW 04:56:56 61° WSW 05:02:00 10° S
COSMO-SKYMED 1 3.6 04:55:20 10° SSW 04:58:41 24° W 05:02:04 10° NW
Thor Agena Rocket 3.8 04:53:57 10° NNE 04:59:14 76° ESE 05:04:24 10° SSW
Meteor 1-21 Rocket 4.5 04:54:26 10° S 05:00:15 82° E 05:05:58 10° NNE
USA 267 3.6 04:54:11 10° ENE 05:00:28 52° N 05:06:45 10° W
Cosmos 1484 Rocket 2.8 04:58:37 10° N 05:02:01 44° WNW 05:05:24 10° SW
Cosmos 1371 Rocket 4.2 04:58:59 10° SSW 05:04:15 85° ESE 05:09:37 10° NNE
Aureole 3 4.4 04:58:20 10° SSW 05:04:39 62° WNW 05:10:06 10° N
Cosmos 1980 4.0 05:03:25 10° SW 05:08:52 48° NW 05:14:22 10° NNE
